Regional Weather Roundup
Issued by NWS

Home | Current Version | Previous Version | Text Only | Print | Product List | Glossary Off
Versions: 1 2 3 4 5 6 7 8 9 10 11 12 13 14 15 16 17 18 19 20 21 22 23 24 25 26 27 28 29 30 31 32 33 34 35 36 37 38 39 40 41 42 43 44 45 46 47 48 49 50

000
ASUS43 KDTX 290401
RWRMI
MICHIGAN HOURLY REGIONAL WEATHER ROUNDUP
NATIONAL WEATHER SERVICE DETROIT/PONTIAC MI
1200 AM EDT THU JUN 29 2017

NOTE: "FAIR" INDICATES FEW OR NO CLOUDS BELOW 12,000 FEET WITH NO
SIGNIFICANT WEATHER AND/OR OBSTRUCTION TO VISIBILITY.

MIZ047>049-052>055-059>063-066>070-074>076-081>083-290500-
SOUTHEAST LOWER MICHIGAN

CITY           SKY/WX    TMP DP  RH WIND       PRES   REMARKS
ADRIAN         CLOUDY    73  54  51 SW17G25   29.92S
ALMA           LGT RAIN  63  59  88 S3        29.88S
ANN ARBOR      MOCLDY    71  54  54 S8        29.92R
BAD AXE        LGT RAIN  61  58  90 S12G20    29.90F
CARO           CLOUDY    62  58  88 SE10      29.88F
DETROIT CITY   MOCLDY    73  53  49 S13G22    29.94R
DETROIT        CLOUDY    73  54  51 S12       29.94R
FLINT          CLOUDY    66  55  67 SE9       29.90F
GROSSE ILE     PTCLDY    70  61  73 S13       29.94R
HILLSDALE      PTCLDY    70  52  52 S13G18    29.92S
HOWELL         CLOUDY    69  51  52 S7        29.91F

CITY           SKY/WX    TMP DP  RH WIND       PRES   REMARKS
JACKSON        CLOUDY    73  51  46 S15G23    29.90F
LAMBERTVILLE   CLOUDY    73  54  51 S9        29.94R
LANSING        CLOUDY    67  55  65 S10       29.88S
LAPEER         RAIN      63  57  81 SE7       29.93F
MASON          CLOUDY    69  55  60 SE10      29.88F
MONROE         PTCLDY    73  53  50 S14       29.93R
MT. CLEMENS    CLOUDY    70  58  65 S10       29.93R
PONTIAC        CLOUDY    70  53  54 S6        29.92R
PORT HOPE        N/A     62  58  86 SE7       29.90F
PORT HURON     CLOUDY    63  57  82 E3        29.96S
TRI CITIES     HVY RAIN  64  60  87 S7        29.90R FOG
MIDLAND        RAIN      63  58  82 SE7       29.86R
TROY           CLOUDY    74  50  43 S10       29.95S
SAGINAW HB     CLOUDY    63  55  77 S8        29.88R
$$
MIZ043>046-050>051-056>058-064>065-071>073-077>080-290500-
SOUTHWEST LOWER MICHIGAN

CITY           SKY/WX    TMP DP  RH WIND       PRES   REMARKS
BATTLE CREEK   CLOUDY    73  54  51 S17G30    29.87F
BENTON HARBOR  LGT RAIN  71  60  68 W8        29.90
BIG RAPIDS     RAIN      61  57  88 S9G18     29.84R
COLDWATER      CLOUDY    73  48  41 S8G17     29.90S
FREMONT        RAIN      63  63 100 S8        29.82F
HOLLAND        HVY RAIN  65  63  93 W6        29.89R FOG
GRAND RAPIDS   TSTM      64  62  93 S7        29.85F
IONIA          RAIN      64  60  88 S3        29.88R
KALAMAZOO      MOCLDY    73  54  51 S15G24    29.88R
LUDINGTON      LGT RAIN  63  62  97 S13G22    29.73F
MARSHALL       CLOUDY    73  52  47 S14G21    29.88F
MOUNT PLEASANT RAIN      62  57  84 S7        29.85S
MUSKEGON       RAIN      64  63  96 S10       29.85F FOG
SOUTH HAVEN    HVY RAIN  67  64  87 W17G25    29.92R
$$
MIZ016>042-290500-
NORTHERN LOWER MICHIGAN

CITY           SKY/WX    TMP DP  RH WIND       PRES   REMARKS
ALPENA         CLOUDY    63  60  90 S9        29.82F
BELLAIRE       CLOUDY    64  58  80 S14       29.73F
CADILLAC       LGT RAIN  61  59  92 S14G25    29.79S
CHARLEVOIX     LGT RAIN  63  62  96 S10G20    29.74F
FRANKFORT      MOCLDY    64  60  85 SE16G26   29.67F
GAYLORD        CLOUDY    62  56  80 S14       29.77F
GRAYLING       CLOUDY    61  57  86 SE8       29.80F
HARBOR SPRINGS CLOUDY    63  61  94 E3        29.73F
HOUGHTON LAKE  CLOUDY    62  56  80 S12G20    29.82F
MANISTEE       LGT RAIN  63  61  93 S10G21    29.71F
OSCODA         CLOUDY    64  56  75 S14G20    29.85S
PELLSTON       LGT RAIN  62  59  90 SE8       29.74F
ROGERS CITY    CLOUDY    62  59  91 S12G17    29.79F
TRAVERSE CITY  CLOUDY    67  59  75 S10G23    29.68F
$$
MIZ007>008-015-290500-
EASTERN UPPER MICHIGAN

CITY           SKY/WX    TMP DP  RH WIND       PRES   REMARKS
KINROSS        LGT RAIN  60  59  96 SE12      29.78F
MACKINAC ISLAN LGT RAIN  60  60 100 E6        29.75F
NEWBERRY       CLOUDY    60  59  97 SE9       29.72F FOG
S. S. MARIE    LGT RAIN  62  59  90 SE10G18   29.78F FOG
MUNISING         N/A     61  60  97 S8        29.66F
$$
MIZ004>006-011>014-085-290500-
CENTRAL UPPER MICHIGAN

CITY           SKY/WX    TMP DP  RH WIND       PRES   REMARKS
MANISTIQUE     HVY RAIN  58  55  89 E7        29.69F
ESCANABA       CLOUDY    61  60  97 SE6       29.66F
MENOMINEE      CLOUDY    63  61  93 SW8       29.65R FOG
SAWYER-GWINN   LGT RAIN  59  59  97 SE8       29.66S
$$
MIZ001>003-009>011-084-290500-
WESTERN UPPER MICHIGAN

CITY           SKY/WX    TMP DP  RH WIND       PRES   REMARKS
IRON MOUNTAIN  FOG       61  59  93 SE5       29.63S VSB 1/4
HOUGHTON       LGT RAIN  59  57  93 E10       29.61S FOG
COPPER HARBOR    N/A     59  58  96 S12G20    29.63F
IRONWOOD       LGT RAIN  66  64  93 SE7       29.55S
$$

ABBREVIATIONS USED IN REMARKS
   TC - TEMPERATURE IN CELSIUS
  WCI - WIND CHILL INDEX
   HX - HEAT INDEX
  VSB - VISIBILITY




USA.gov is the U.S. government's official web portal to all federal, state and local government web resources and services.